This is the latest recevied weather packets stored in our database for station/object KE5VBO-1. If no packets are shown the sender has not sent any weather packets the latest 1 day(s).
| Time | Temp. | Humidity | Pressure | Rain* | Wind** | Luminosity | Snow |
|---|---|---|---|---|---|---|---|
| 1778014832 | 30.56° C | 47% | 1002 hPa | 0 mm | 0 m/s | - | - |
| 1778013966 | 30° C | 46% | 1002.2 hPa | 0 mm | 0 m/s | - | - |
| 1778013022 | 29.44° C | 49% | 1002.2 hPa | 0 mm | 0 m/s | - | - |
| 1778012168 | 30° C | 43% | 1002.4 hPa | 0 mm | 0 m/s | - | - |
| 1778011224 | 30.56° C | 49% | 1002.4 hPa | 0 mm | 0 m/s | - | - |
| 1778010354 | 30.56° C | 51% | 1002.5 hPa | 0 mm | 0 m/s | - | - |
| 1778009418 | 30° C | 46% | 1002.4 hPa | 0 mm | 0 m/s | - | - |
| 1778008568 | 28.89° C | 42% | 1002.5 hPa | 0 mm | 0 m/s | - | - |
| 1778007618 | 28.89° C | 43% | 1002.3 hPa | 0 mm | 0 m/s | - | - |
| 1778006759 | 28.89° C | 38% | 1002.6 hPa | 0 mm | 0 m/s | - | - |
| 1778005824 | 28.33° C | 31% | 1002.6 hPa | 0 mm | 0.45 m/s, 260° | - | - |
| 1778004956 | 27.78° C | 12% | 1002.8 hPa | 0 mm | 0 m/s | - | - |
| 1778004021 | 27.78° C | 13% | 1002.7 hPa | 0 mm | 0.45 m/s, 211° | - | - |
| 1778003163 | 27.22° C | 4% | 1002.7 hPa | 0 mm | 0.45 m/s, 231° | - | - |
| 1778002233 | 26.67° C | 1% | 1002.7 hPa | 0 mm | 0 m/s | - | - |
| 1778001367 | 25.56° C | 1% | 1002.8 hPa | 0 mm | 0 m/s | - | - |
| 1778000430 | 25.56° C | 1% | 1003 hPa | 0 mm | 0 m/s | - | - |
| 1777999562 | 25.56° C | 1% | 1002.8 hPa | 0 mm | 0 m/s | - | - |
| 1777998619 | 25.56° C | 1% | 1002.4 hPa | 0 mm | 0 m/s | - | - |
| 1777997768 | 25.56° C | 1% | 1003 hPa | 0 mm | 0 m/s | - | - |
| 1777996829 | 25.56° C | 1% | 1002.6 hPa | 0 mm | 0 m/s | - | - |
| 1777995964 | 25.56° C | 1% | 1002.6 hPa | 0 mm | 0.45 m/s, 112° | - | - |
| 1777995023 | 24.44° C | 1% | 1002.3 hPa | 0 mm | 0 m/s | - | - |
| 1777994162 | 24.44° C | 1% | 1002.6 hPa | 0 mm | 0 m/s | - | - |
| 1777993230 | 24.44° C | 1% | 1002.7 hPa | 0 mm | 0 m/s | - | - |
* Rain latest hour (hover to see other rain measurements)
** Current wind speed in m/s (hover to see current wind gust speed)